Location: Ermatingen
(47.6706°N, 9.0857°E)
Time: 08:17:58
(UTC+00:00)

Cosmos 1428 Rocket - Pass Details

Date: 30 November 2021
Orbit: 949 x 987 km, 82.9° (Epoch: 26 January)

Event Time Altitude Azimuth Distance (km) Brightness Sun altitude
Rises 18:50:17 0° 340° (NNW) 3,633 7.8 -32.2°
Reaches altitude 10° 18:53:21 10° 325° (NW) 2,685 7.2 -32.7°
Maximum altitude 18:57:46 21° 278° (W) 1,992 6.7 -33.5°
Drops below altitude 10° 19:02:11 10° 232° (SW) 2,683 7.3 -34.2°
Sets 19:05:16 0° 217° (SW) 3,630 7.9 -34.7°
